Location: Aldenham
(51.6667°N, 0.3500°W)
Time: 08:25:50
(UTC+00:00)

Explorer 7 - Pass Details

Date: 23 February 2026
Orbit: 430 x 541 km, 50.2° (Epoch: 12 March)

Event Time Altitude Azimuth Distance (km) Brightness Sun altitude
Rises 17:35:45 0° 279° (W) 2,473 11.6 -1.6°
Reaches altitude 10° 17:37:56 10° 272° (W) 1,616 10.9 -1.9°
Maximum altitude 17:41:22 40° 202° (SSW) 715 7.8 -2.4°
Drops below altitude 10° 17:44:56 10° 132° (SE) 1,675 9.0 -3.0°
Sets 17:47:14 0° 125° (SE) 2,577 9.8 -3.3°
